S&P 500   3,811.15
DOW   30,932.37
QQQ   314.14
pixel
pixel
S&P 500   3,811.15
DOW   30,932.37
QQQ   314.14
pixel
pixel
S&P 500   3,811.15
DOW   30,932.37
QQQ   314.14
pixel
pixel
S&P 500   3,811.15
DOW   30,932.37
QQQ   314.14
pixel
pixel
Log in
NYSE:DBL

DoubleLine Opportunistic Credit Fund Institutional Ownership

$19.66
-0.04 (-0.20 %)
(As of 02/26/2021 12:00 AM ET)
Add
Compare
Today's Range
$19.62
Now: $19.66
$19.74
50-Day Range
$19.14
MA: $19.69
$20.08
52-Week Range
$14.80
Now: $19.66
$21.10
Volume41,600 shs
Average Volume48,566 shs
Market CapitalizationN/A
P/E RatioN/A
Dividend Yield0.10%
BetaN/A

Institutional Ownership

Institutional Ownership Changes (13F Filings) for DoubleLine Opportunistic Credit Fund (NYSE:DBL)

 

Institutional Buying and Selling by Quarter


DoubleLine Opportunistic Credit Fund (NYSE DBL) Institutional Buying and Selling

Reporting DateHedge FundShares HeldMarket Value% of PortfolioQuarterly Change in SharesOwnership in Company
2/18/2021Intellectus Partners LLC170,531$3.35M1.0%+13.4%0.000%
2/18/2021Truist Financial Corp15,859$0.31M0.0%-27.5%0.000%
2/16/2021Morgan Stanley235,437$4.63M0.0%+19.6%0.000%
2/16/2021Guggenheim Capital LLC53,905$1.06M0.0%+63.4%0.000%
2/16/2021First Foundation Advisors205,458$4.04M0.2%+6.6%0.000%
2/13/2021Tompkins Financial Corp2,500$49K0.0%N/A0.000%
2/12/2021LPL Financial LLC49,398$0.97M0.0%+10.8%0.000%
2/12/2021Aviance Capital Partners LLC270,296$5.31M1.1%+1.4%0.000%
2/11/2021Baird Financial Group Inc.21,719$0.43M0.0%+81.2%0.000%
2/11/2021Citigroup Inc.20,713$0.41M0.0%+463.6%0.000%
2/10/2021HighTower Advisors LLC30,950$0.61M0.0%-42.5%0.000%
2/9/2021Wells Fargo & Company MN110,953$2.18M0.0%+7.6%0.000%
2/9/2021Sigma Planning Corp17,974$0.35M0.0%-4.7%0.000%
2/8/2021Secure Asset Management LLC40,089$0.79M0.5%-16.6%0.000%
2/5/2021Litman Gregory Asset Management LLC68,200$1.34M0.2%+11.6%0.000%
2/5/2021Apriem Advisors32,900$0.65M0.1%+23.2%0.000%
2/3/2021Shaker Financial Services LLC147,011$2.89M1.2%+78.8%0.000%
1/28/2021Robinson Capital Management LLC5,435$0.11M0.1%+1,498.5%0.000%
1/25/2021Janney Montgomery Scott LLC18,956$0.37M0.0%-4.1%0.000%
1/21/2021Beacon Harbor Wealth Advisors Inc.20,300$0.40M0.2%N/A0.000%
1/20/2021Kestra Advisory Services LLC24,216$0.47M0.0%+43.4%0.000%
1/20/2021Measured Wealth Private Client Group LLC44,233$0.87M0.4%+32.5%0.000%
1/20/2021Park Avenue Securities LLC37,902$0.75M0.0%+8.2%0.000%
1/19/2021FNY Investment Advisers LLC5,063$99K0.0%N/A0.000%
1/19/2021Crescent Capital Consulting LLC2,000$39K0.0%N/A0.000%
1/12/2021Addison Capital Co14,300$0.28M0.2%-21.9%0.000%
11/19/2020Catalyst Private Wealth LLC4,706$90K0.1%N/A0.000%
11/13/2020Morgan Stanley196,861$3.75M0.0%-8.6%0.000%
11/13/2020Guggenheim Capital LLC32,983$0.63M0.0%+87.8%0.000%
11/13/2020Botty Investors LLC154,495$2.95M0.9%-17.1%0.000%
11/12/2020Kestra Advisory Services LLC16,889$0.32M0.0%N/A0.000%
11/9/2020Shaker Financial Services LLC82,233$1.57M0.8%+370.9%0.000%
11/9/2020LPL Financial LLC44,594$0.85M0.0%+12.8%0.000%
11/5/2020Wells Fargo & Company MN103,161$1.97M0.0%+31.6%0.000%
11/4/2020Raymond James & Associates57,240$1.09M0.0%-1.0%0.000%
11/3/2020Park Avenue Securities LLC35,036$0.67M0.0%+12.8%0.000%
11/3/2020SkyOak Wealth LLC11,894$0.23M0.1%-34.3%0.000%
11/3/2020Litman Gregory Asset Management LLC61,100$1.17M0.2%+40.8%0.000%
10/29/2020Cambridge Investment Research Advisors Inc.59,345$1.13M0.0%-2.9%0.000%
10/27/2020Usca Ria LLC50,545$0.96M0.1%-2.9%0.000%
10/20/2020Secure Asset Management LLC48,089$0.92M0.6%-10.6%0.000%
10/15/2020Measured Wealth Private Client Group LLC33,389$0.64M0.3%+35.7%0.000%
10/9/2020Envestnet Asset Management Inc.35,272$0.67M0.0%+12.7%0.000%
8/14/2020Bank of America Corp DE232,229$4.40M0.0%-36.7%0.000%
8/14/2020Stifel Financial Corp47,084$0.89M0.0%+13.2%0.000%
8/14/2020Intellectus Partners LLC156,069$2.96M1.1%+14.2%0.000%
8/14/2020Advisor Group Holdings Inc.25,649$0.49M0.0%-98.6%0.000%
8/13/2020Sit Investment Associates Inc.1,376,972$26.09M0.8%+99.1%0.000%
8/12/2020Bank of Montreal Can42,993$0.82M0.0%-1.4%0.000%
8/12/2020Commonwealth Equity Services LLC17,657$0.33M0.0%+3.4%0.000%
8/10/2020HighTower Advisors LLC61,080$1.16M0.0%-3.8%0.000%
8/10/2020SkyOak Wealth LLC18,100$0.34M0.1%-6.2%0.000%
8/7/2020Apriem Advisors15,550$0.30M0.1%+22.0%0.000%
8/6/2020Shaker Financial Services LLC17,464$0.33M0.2%N/A0.000%
8/6/2020Mid Atlantic Financial Management Inc. ADV28,400$0.54M0.1%-3.1%0.000%
8/3/2020Measured Wealth Private Client Group LLC24,596$0.47M0.3%+32.3%0.000%
7/31/2020Litman Gregory Asset Management LLC43,400$0.82M0.2%+46.9%0.000%
7/31/2020UBS Group AG274,537$5.20M0.0%-8.5%0.000%
7/30/2020Park Avenue Securities LLC31,059$0.59M0.0%N/A0.000%
7/27/2020Cambridge Investment Research Advisors Inc.61,109$1.16M0.0%-1.4%0.000%
7/24/2020Aviance Capital Partners LLC219,077$4.15M1.0%+16.6%0.000%
7/16/2020Wedbush Securities Inc.10,980$0.21M0.0%-13.2%0.000%
7/14/2020Secure Asset Management LLC53,789$1.02M0.7%N/A0.000%
7/8/2020Envestnet Asset Management Inc.31,295$0.59M0.0%+21.1%0.000%
6/16/2020Royal Bank of Canada15,825$0.27M0.0%-76.0%0.000%
5/26/2020Morgan Stanley527,409$9.02M0.0%+92.4%0.000%
5/26/2020Verus Capital Partners LLC25,939$0.44M0.1%-17.7%0.000%
5/21/2020HighTower Advisors LLC63,480$1.09M0.0%-3.2%0.000%
5/18/2020Advisor Group Holdings Inc.1,861,049$0.69M0.0%N/A0.000%
5/15/2020Invesco Ltd.136,949$2.34M0.0%-3.2%0.000%
5/15/2020Morgan Stanley527,409$9.02M0.0%+92.4%0.000%
5/14/2020Wells Fargo & Company MN80,964$1.38M0.0%+43.3%0.000%
5/14/2020Van Hulzen Asset Management LLC30,522$0.52M0.1%-54.3%0.000%
5/14/2020Intellectus Partners LLC136,614$2.34M1.1%+7.3%0.000%
5/13/2020Botty Investors LLC186,392$3.19M1.3%-0.7%0.000%
5/13/2020Horizon Kinetics Asset Management LLC417,250$7.14M0.3%-13.3%0.000%
5/12/2020Private Advisor Group LLC16,052$0.27M0.0%-6.8%0.000%
5/12/2020Citigroup Inc.3,550$61K0.0%-14.5%0.000%
5/11/2020Commonwealth Equity Services LLC17,069$0.29M0.0%+39.0%0.000%
5/11/2020First Foundation Advisors192,821$3.30M0.2%+18.7%0.000%
5/11/2020Mid Atlantic Financial Management Inc. ADV29,300$0.50M0.1%-2.0%0.000%
5/8/2020Northwestern Mutual Wealth Management Co.57,300$0.98M0.0%+42.8%0.000%
5/8/2020Cambridge Investment Research Advisors Inc.61,995$1.06M0.0%-8.9%0.000%
5/8/2020Cetera Advisor Networks LLC20,466$0.35M0.0%-49.6%0.000%
5/6/2020Family Management Corp242,020$4.14M2.1%+49.2%0.000%
5/5/2020Aviance Capital Partners LLC187,895$3.21M1.0%+8.1%0.000%
5/1/2020Sigma Planning Corp18,613$0.32M0.0%+3.8%0.000%
5/1/2020UBS Group AG300,141$5.13M0.0%-7.7%0.000%
4/30/2020Janney Montgomery Scott LLC19,776$0.34M0.0%+5.0%0.000%
4/28/2020Litman Gregory Asset Management LLC29,550$0.51M0.1%N/A0.000%
4/24/2020Lincoln National Corp10,316$0.18M0.0%-61.7%0.000%
4/23/2020Envestnet Asset Management Inc.25,842$0.44M0.0%+27.9%0.000%
4/22/2020Lindbrook Capital LLC1,500$26K0.0%N/A0.000%
4/22/2020Measured Wealth Private Client Group LLC18,585$0.32M0.2%+3.5%0.000%
4/21/2020Raymond James & Associates66,250$1.13M0.0%+10.8%0.000%
4/17/2020Wedbush Securities Inc.12,647$0.22M0.0%+19.1%0.000%
4/13/2020Addison Capital Co18,800$0.32M0.2%-5.1%0.000%
2/27/2020Verus Capital Partners LLC31,505$0.65M0.2%N/A0.000%
2/17/2020Ladenburg Thalmann Financial Services Inc.152,508$3.15M0.0%-2.8%0.000%
2/14/2020Bank of America Corp DE340,806$7.03M0.0%-20.1%0.000%
(Data available from 1/1/2016 forward)

This page was last updated on 3/1/2021 by MarketBeat.com Staff

Enter your email address below to receive a concise daily summary of analysts' upgrades, downgrades and new coverage with MarketBeat.com's FREE daily email newsletter.